Location: Bishopstone
(51.0167°N, 1.9000°W)
Time: 13:18:19
(UTC+00:00)

Cosmos 1371 Rocket - Pass Details

Date: 16 September 2019
Orbit: 753 x 790 km, 74.0° (Epoch: 18 October)

Event Time Altitude Azimuth Distance (km) Brightness Sun altitude
Rises 20:01:34 0° 183° (S) 3,240 7.0 -16.1°
Reaches altitude 10° 20:04:00 10° 177° (S) 2,323 6.2 -16.5°
Maximum altitude 20:09:01 46° 106° (ESE) 1,054 4.3 -17.2°
Drops below altitude 10° 20:14:06 10° 34° (NE) 2,359 6.5 -17.9°
Sets 20:16:35 0° 29° (NNE) 3,295 7.3 -18.3°
